Regional Weather Roundup
Issued by NWS

Home | Current Version | Previous Version | Text Only | Print | Product List | Glossary Off
Versions: 1 2 3 4 5 6 7 8 9 10 11 12 13 14 15 16 17 18 19 20 21 22 23 24 25 26 27 28 29 30 31 32 33 34 35 36 37 38 39 40 41 42 43 44 45 46 47 48 49 50

000
ASUS45 KCYS 170910
RWRWY

WYOMING REGIONAL WEATHER ROUNDUP
NATIONAL WEATHER SERVICE CHEYENNE WY
300 AM MDT THU AUG 17 2017

NOTE:  "FAIR" INDICATES FEW OR NO CLOUDS BELOW 12,000 FEET
WITH NO SIGNIFICANT WEATHER AND/OR OBSTRUCTIONS TO VISIBILITY.

WYZ001-171000-
YELLOWSTONE NATIONAL PARK

CITY           SKY/WX    TMP DP  RH WIND       PRES   REMARKS
LK YELLOWSTONE   N/A     43  40  89 CALM      30.26S
W YELLOWSTONE  NOT AVBL

$$
WYZ002>013-054>058-071-098>099-171000-
NORTHERN WYOMING

CITY           SKY/WX    TMP DP  RH WIND       PRES   REMARKS
JACKSON          N/A     40  33  76 NE8       30.19F WCI  34
CODY           FAIR      65  37  35 SW7       30.04S
GREYBULL       FAIR      62  42  47 S5        29.97S
WORLAND        FAIR      60  44  55 S7        29.98R
SHERIDAN       FAIR      55  44  66 W3        29.95S
BUFFALO        FAIR      65  34  31 W7        30.02S
GILLETTE       FAIR      66  38  35 SW16      29.97F
HULETT         FAIR      68  39  34 S12       29.99F
NEWCASTLE      FAIR      63  41  45 E10G20    30.02F

$$
WYZ014>020-022>026-101>103-171000-
CENTRAL WYOMING

CITY           SKY/WX    TMP DP  RH WIND       PRES   REMARKS
BIG PINEY      FAIR      42  37  82 E6        30.24S
PINEDALE       FAIR      37  36  93 W5        30.26S WCI  34
DUBOIS         FAIR      45  32  61 NW13      30.21S
LANDER           N/A    N/A N/A N/A MISG      30.09S
RIVERTON       FAIR      60  39  45 W10       30.09S
CASPER         FAIR      58  42  55 SW8       30.08S
DOUGLAS        FAIR      53  44  71 SE5       30.07S

$$
WYZ021-027>030-104>119-171000-
SOUTHERN WYOMING

CITY           SKY/WX    TMP DP  RH WIND       PRES   REMARKS
EVANSTON       FAIR      54  37  52 S8        30.26S
KEMMERER         N/A     52  36  54 N3        30.26S
FORT BRIDGER   FAIR      61  33  35 SW10      30.27F
ROCK SPRINGS   FAIR      57  37  47 SW12      30.22R
RAWLINS        FAIR      53  41  63 CALM      30.20F
SARATOGA       FAIR      50  43  76 S10       30.25R
LARAMIE        FAIR      45  39  79 S9        30.24S
CHEYENNE       FAIR      53  44  71 SW8       30.18S
TORRINGTON     FAIR      51  49  92 E7        30.05S
PINE BLUFFS    FAIR      52  50  93 SW6       30.14S

$$



USA.gov is the U.S. government's official web portal to all federal, state and local government web resources and services.